This demonstration page uses our WeatherBlox Daily Observations layout. Learn more.

Left ArrowRight Arrow

34.16533, -84.80231

Hourly Observations for April 21, 2022

Temp ( °F °C ) Dew Point ( °F °C ) Humidity (%) Winds ( mph kmh ) Pressure ( in mb ) Visibility ( mi km ) Precip ( " mm )
12:15 am 00:15 Mostly Cloudy 61 16 41 5 48 48 VRB 6 9 30.29 1026 10 16 0.00 0.00
12:35 am 00:35 Mostly Cloudy 61 16 41 5 48 48 ESE 7 11 30.29 1026 10 16 0.00 0.00
12:55 am 00:55 Cloudy 61 16 43 6 52 52 E 5 7 30.31 1027 10 16 0.00 0.00
1:15 am 01:15 Cloudy 61 16 43 6 52 52 VRB 5 7 30.31 1027 10 16 0.00 0.00
1:35 am 01:35 Cloudy 61 16 45 7 55 55 ESE 5 7 30.31 1027 10 16 0.00 0.00
1:55 am 01:55 Cloudy 61 16 45 7 55 55 ESE 3 6 30.32 1027 10 16 0.00 0.00
2:15 am 02:15 Cloudy 61 16 46 8 59 59 Calm 30.33 1027 10 16 0.00 0.00
2:35 am 02:35 Cloudy 61 16 48 9 63 63 Calm 30.34 1028 10 16 0.00 0.00
2:55 am 02:55 Cloudy 61 16 50 10 68 68 ESE 3 6 30.34 1028 10 16 0.00 0.00
3:15 am 03:15 Cloudy 61 16 50 10 68 68 VRB 3 6 30.33 1027 10 16 0.00 0.00
3:35 am 03:35 Cloudy 61 16 50 10 68 68 VRB 6 9 30.33 1027 10 16 0.00 0.00
3:55 am 03:55 Cloudy 59 15 52 11 77 77 ESE 5 7 30.35 1028 10 16 0.00 0.00
4:15 am 04:15 Cloudy 59 15 52 11 77 77 VRB 7 11 30.35 1028 10 16 0.00 0.00
4:35 am 04:35 Cloudy 59 15 52 11 77 77 VRB 6 9 30.35 1028 10 16 0.00 0.00
4:55 am 04:55 Cloudy 59 15 52 11 77 77 VRB 6 9 30.36 1028 10 16 0.00 0.00
5:15 am 05:15 Cloudy 59 15 52 11 77 77 ESE 8 13 30.36 1028 10 16 0.00 0.00
5:35 am 05:35 Cloudy 59 15 52 11 77 77 ESE 8 13 30.35 1028 10 16 0.00 0.00
5:55 am 05:55 Cloudy 59 15 52 11 77 77 ESE 8 13 30.35 1028 10 16 0.00 0.00
6:15 am 06:15 Mostly Cloudy 59 15 52 11 77 77 VRB 6 9 30.36 1028 10 16 0.00 0.00
6:35 am 06:35 Cloudy 59 15 52 11 77 77 ESE 8 13 30.36 1028 10 16 0.00 0.00
6:55 am 06:55 Mostly Cloudy 57 14 52 11 82 82 ESE 8 13 30.37 1028 10 16 0.00 0.00
7:15 am 07:15 Mostly Sunny 57 14 52 11 82 82 VRB 5 7 30.39 1029 10 16 0.00 0.00
7:35 am 07:35 Sunny 59 15 52 11 77 77 VRB 6 9 30.39 1029 10 16 0.00 0.00
7:55 am 07:55 Sunny 57 14 52 11 82 82 ESE 8 13 30.39 1029 10 16 0.00 0.00
8:15 am 08:15 Sunny 59 15 52 11 77 77 VRB 6 9 30.38 1029 10 16 0.00 0.00
8:35 am 08:35 Mostly Sunny 59 15 52 11 77 77 ESE 8 13 30.39 1029 10 16 0.00 0.00
8:55 am 08:55 Partly Cloudy 59 15 54 12 82 82 Calm 30.42 1030 10 16 0.00 0.00
9:15 am 09:15 Mostly Cloudy 59 15 54 12 82 82 Calm 30.43 1030 10 16 0.00 0.00
9:35 am 09:35 Cloudy 59 15 54 12 82 82 SSE 3 6 30.44 1031 10 16 0.00 0.00
9:55 am 09:55 Cloudy 61 16 54 12 77 77 VRB 6 9 30.43 1031 10 16 0.00 0.00
10:15 am 10:15 Mostly Cloudy 61 16 54 12 77 77 E 7 11 30.43 1031 10 16 0.00 0.00
10:35 am 10:35 Mostly Sunny 63 17 54 12 73 73 E 7 11 30.43 1030 10 16 0.00 0.00
10:55 am 10:55 Mostly Cloudy 64 18 55 13 73 73 VRB 5 7 30.44 1031 10 16 0.00 0.00
11:15 am 11:15 Cloudy 66 19 55 13 68 68 VRB 6 9 30.42 1030 10 16 0.00 0.00
11:35 am 11:35 Cloudy 66 19 55 13 68 68 Calm 30.44 1031 10 16 0.00 0.00
11:55 am 11:55 Mostly Cloudy 70 21 55 13 60 60 VRB 5 7 30.43 1030 10 16 0.00 0.00
12:15 pm 12:15 Partly Cloudy 70 21 54 12 57 57 SSE 9 15 30.43 1030 10 16 0.00 0.00
12:35 pm 12:35 Partly Cloudy 70 21 55 13 60 60 SSE 7 11 30.42 1030 10 16 0.00 0.00
12:55 pm 12:55 Partly Cloudy 72 22 55 13 57 57 SSE 9 15 30.41 1030 10 16 0.00 0.00
1:15 pm 13:15 Mostly Sunny 73 23 54 12 50 50 SE 7 11 30.39 1029 10 16 0.00 0.00
1:35 pm 13:35 Mostly Sunny 73 23 55 13 53 53 ESE 8 13 30.38 1029 10 16 0.00 0.00
1:55 pm 13:55 Mostly Sunny 73 23 54 12 50 50 S 7 11 30.37 1029 10 16 0.00 0.00
2:15 pm 14:15 Mostly Cloudy 75 24 55 13 50 50 ESE 8 13 30.36 1028 10 16 0.00 0.00
2:35 pm 14:35 Mostly Cloudy 75 24 55 13 50 50 VRB 7 11 30.35 1028 10 16 0.00 0.00
2:55 pm 14:55 Partly Cloudy 75 24 54 12 47 47 SSE 8 13 30.35 1028 10 16 0.00 0.00
3:15 pm 15:15 Mostly Sunny 77 25 54 12 44 44 SE 6 9 30.33 1027 10 16 0.00 0.00
3:35 pm 15:35 Sunny 79 26 52 11 39 39 S 8 13 30.33 1027 10 16 0.00 0.00
3:55 pm 15:55 Sunny 79 26 54 12 42 42 ESE 8 13 30.32 1027 10 16 0.00 0.00
4:15 pm 16:15 Sunny 79 26 52 11 39 39 VRB 7 11 30.31 1026 10 16 0.00 0.00
4:35 pm 16:35 Sunny 79 26 52 11 39 39 S 9 15 30.30 1026 10 16 0.00 0.00
4:55 pm 16:55 Mostly Sunny 79 26 52 11 39 39 ESE 6 9 30.30 1026 10 16 0.00 0.00
5:15 pm 17:15 Mostly Sunny 79 26 52 11 39 39 SSE 8 13 30.30 1026 10 16 0.00 0.00
5:35 pm 17:35 Sunny 79 26 52 11 39 39 Calm 30.30 1026 10 16 0.00 0.00
5:55 pm 17:55 Sunny 79 26 52 11 39 39 S 6 9 30.31 1026 10 16 0.00 0.00
6:15 pm 18:15 Sunny 79 26 52 11 39 39 VRB 3 6 30.31 1026 10 16 0.00 0.00
6:35 pm 18:35 Sunny 79 26 52 11 39 39 SE 5 7 30.31 1026 10 16 0.00 0.00
6:55 pm 18:55 Sunny 79 26 52 11 39 39 Calm 30.31 1026 10 16 0.00 0.00
7:15 pm 19:15 Mostly Sunny 77 25 54 12 44 44 Calm 30.32 1027 10 16 0.00 0.00
7:35 pm 19:35 Sunny 75 24 54 12 47 47 Calm 30.32 1027 10 16 0.00 0.00
7:55 pm 19:55 Sunny 73 23 54 12 50 50 Calm 30.32 1027 10 16 0.00 0.00
8:15 pm 20:15 Sunny 73 23 54 12 50 50 Calm 30.33 1027 10 16 0.00 0.00
8:35 pm 20:35 Partly Cloudy 72 22 54 12 53 53 Calm 30.34 1027 10 16 0.00 0.00
8:55 pm 20:55 Cloudy 70 21 55 13 60 60 Calm 30.35 1028 10 16 0.00 0.00
9:15 pm 21:15 Cloudy 66 19 55 13 68 68 Calm 30.35 1028 10 16 0.00 0.00
9:35 pm 21:35 Cloudy 66 19 57 14 73 73 Calm 30.35 1028 10 16 0.00 0.00
9:55 pm 21:55 Cloudy 64 18 57 14 78 78 Calm 30.37 1028 10 16 0.00 0.00
10:15 pm 22:15 Cloudy 64 18 57 14 78 78 Calm 30.37 1028 10 16 0.00 0.00
10:35 pm 22:35 Mostly Cloudy 63 17 57 14 83 83 E 3 6 30.38 1029 10 16 0.00 0.00
10:55 pm 22:55 Mostly Cloudy 63 17 55 13 77 77 Calm 30.38 1029 10 16 0.00 0.00
11:15 pm 23:15 Partly Cloudy 63 17 55 13 77 77 Calm 30.38 1029 10 16 0.00 0.00
11:35 pm 23:35 Mostly Clear 63 17 55 13 77 77 Calm 30.38 1029 9 14 0.00 0.00
11:55 pm 23:55 Mostly Clear 61 16 55 13 83 83 Calm 30.39 1029 10 16 0.00 0.00

Powered by AerisWeather